User: anonymous   Login
Location: ?????????
(53.2086°N, 54.0693°E)
Time: 13:33:14
(UTC+00:00)
Language:

Cosmos 1536 - Orbit

View from above orbital plane
View from above orbital plane
View from above satellite
View from above satellite

Ground track
Ground track

The orbit data is extracted from the following two-line orbital elements,

1 14699U 84013A   20052.65478281  .00000015  00000-0 -94976-6 0  9993
2 14699  82.5233 100.8793 0011266 320.4359  39.6044 15.05548505960441
Epoch (UTC): 21 February 2020 15:42:53
Eccentricity: 0.0011266
inclination: 82.5233°
perigee height: 542 km
apogee height: 557 km
right ascension of ascending node: 100.8793°
argument of perigee: 320.4359°
revolutions per day: 15.05548505
mean anomaly at epoch: 39.6044°
orbit number at epoch: 96044

The dashed part of the orbit path shows where the satellite is in the earth's shadow,  

DLR